Weather History for Liverpool, United Kingdom

Change the Weather History Date:

Saturday, March 9, 2013

  Actual Average Record
Temperature  
Mean Temperature 40 °F -  
Max Temperature 42 °F 50 °F 59 °F (2014)
Min Temperature 37 °F 39 °F 33 °F (2004)
Degree Days  
Heating Degree Days 26    
Moisture  
Dew Point 38 °F    
Average Humidity 93    
Maximum Humidity 100    
Minimum Humidity 87    
Precipitation  
Precipitation 0.00 in - - ()
Sea Level Pressure  
Sea Level Pressure 29.65 in    
Wind  
Wind Speed 9 mph ()    
Max Wind Speed 14 mph    
Max Gust Speed -    
Visibility 5.5 miles    
Events Rain    
Averages and records for this station are not official NWS values.
T = Trace of Precipitation, MM = Missing Value Source: Averaged Metar Reports

Daily Weather History Graph

Daily Weather History Graph

Search for Another Location

Airport:

Trip Planner

Search our weather history database for the weather conditions in past years. The results will help you decide how hot, cold, wet, or windy it might be!

Date:

Astronomy

Mar. 09, 2013 Rise Set
Actual Time 6:40 AM GMT 6:04 PM GMT
Civil Twilight 6:05 AM GMT 6:39 PM GMT
Nautical Twilight 5:25 AM GMT 7:19 PM GMT
Astronomical Twilight 4:43 AM GMT 8:01 PM GMT
Moon 5:11 AM GMT (3/9) 3:37 PM GMT (3/9)
Length of Visible Light 12h 33m
Length of Day
11h 24m
Waning Crescent, 7% of the Moon is Illuminated
Mar 9
Waning Crescent
Mar 11
New
Mar 19
First Quarter
Mar 27
Full
Apr 3
Last Quarter

Hourly Weather History & Observations

Time (GMT) Temp. Windchill Dew Point Humidity Pressure Visibility Wind Dir Wind Speed Gust Speed Precip Events Conditions
12:20 AM 41.0 °F 35.2 °F 39.2 °F 93% 29.59 in 6.2 mi East 9.2 mph - N/A Rain Light Rain
12:50 AM 41.0 °F 35.8 °F 39.2 °F 93% 29.59 in 6.2 mi East 8.1 mph - N/A Rain Light Rain
1:20 AM 41.0 °F 35.2 °F 39.2 °F 93% 29.59 in 6.2 mi ENE 9.2 mph - N/A Rain Light Rain
1:50 AM 41.0 °F 34.7 °F 39.2 °F 93% 29.59 in 6.2 mi East 10.4 mph - N/A Rain Light Rain
2:20 AM 41.0 °F 34.7 °F 39.2 °F 93% 29.59 in 6.2 mi East 10.4 mph - N/A Rain Light Rain
2:50 AM 41.0 °F 35.2 °F 39.2 °F 93% 29.59 in 6.2 mi ENE 9.2 mph - N/A Rain Light Rain
3:20 AM 41.0 °F 36.4 °F 39.2 °F 93% 29.59 in 6.2 mi ENE 6.9 mph - N/A Rain Light Rain
3:50 AM 41.0 °F 36.4 °F 39.2 °F 93% 29.59 in 6.2 mi ENE 6.9 mph - N/A Rain Light Rain
4:20 AM 41.0 °F 35.8 °F 39.2 °F 93% 29.59 in 6.2 mi East 8.1 mph - N/A Rain Light Rain
4:50 AM 41.0 °F 35.8 °F 39.2 °F 93% 29.59 in 6.2 mi ENE 8.1 mph - N/A Rain Light Rain
5:20 AM 41.0 °F 37.1 °F 39.2 °F 93% 29.59 in 6.2 mi ENE 5.8 mph - N/A Rain Light Rain
5:50 AM 41.0 °F 38.0 °F 39.2 °F 93% 29.59 in 6.2 mi ENE 4.6 mph - N/A Rain Light Rain
6:20 AM 41.0 °F 36.4 °F 39.2 °F 93% 29.59 in 6.2 mi ENE 6.9 mph - N/A Rain Light Rain
6:50 AM 39.2 °F 34.2 °F 39.2 °F 100% 29.59 in 5.0 mi ENE 6.9 mph - N/A Rain Light Rain
7:20 AM 41.0 °F 34.7 °F 39.2 °F 93% 29.59 in 5.0 mi ENE 10.4 mph - N/A Rain Light Rain
7:50 AM 41.0 °F 34.7 °F 39.2 °F 93% 29.62 in 5.0 mi ENE 10.4 mph - N/A Rain Light Rain
8:20 AM 41.0 °F 35.8 °F 39.2 °F 93% 29.62 in 4.3 mi ENE 8.1 mph - N/A Rain Light Rain
8:50 AM 41.0 °F 35.2 °F 39.2 °F 93% 29.62 in 3.7 mi ENE 9.2 mph - N/A Rain Light Rain
9:20 AM 41.0 °F 34.7 °F 39.2 °F 93% 29.62 in 3.7 mi East 10.4 mph - N/A Rain Light Rain
9:50 AM 41.0 °F 34.7 °F 39.2 °F 93% 29.65 in 3.7 mi East 10.4 mph - N/A Rain Light Rain
10:20 AM 41.0 °F 35.2 °F 39.2 °F 93% 29.65 in 3.7 mi East 9.2 mph - N/A   Mostly Cloudy
10:50 AM 41.0 °F 34.3 °F 39.2 °F 93% 29.65 in 4.3 mi East 11.5 mph - N/A Rain Light Rain
11:20 AM 41.0 °F 34.3 °F 39.2 °F 93% 29.65 in 4.3 mi East 11.5 mph - N/A Rain Light Rain
11:50 AM 41.0 °F 33.9 °F 39.2 °F 93% 29.65 in 5.0 mi East 12.7 mph - N/A Rain Light Rain
12:20 PM 42.8 °F 36.6 °F 39.2 °F 87% 29.65 in 5.0 mi East 11.5 mph - N/A Rain Light Rain
12:50 PM 41.0 °F 33.5 °F 39.2 °F 93% 29.65 in 5.6 mi East 13.8 mph - N/A Rain Light Rain
1:20 PM 41.0 °F 34.3 °F 39.2 °F 93% 29.65 in 5.6 mi ENE 11.5 mph - N/A Rain Light Rain
1:50 PM 41.0 °F 33.9 °F 39.2 °F 93% 29.65 in 5.6 mi East 12.7 mph - N/A Rain Light Rain
2:20 PM 41.0 °F 33.9 °F 39.2 °F 93% 29.65 in 5.0 mi East 12.7 mph - N/A Rain Light Rain
2:50 PM 41.0 °F 33.9 °F 39.2 °F 93% 29.65 in 5.0 mi East 12.7 mph - N/A Rain Light Rain
3:20 PM 41.0 °F 33.9 °F 39.2 °F 93% 29.65 in 5.6 mi East 12.7 mph - N/A Rain Light Rain
3:50 PM 41.0 °F 33.5 °F 39.2 °F 93% 29.65 in 5.6 mi East 13.8 mph - N/A Rain Light Rain
4:20 PM 41.0 °F 33.5 °F 37.4 °F 87% 29.65 in 5.6 mi ENE 13.8 mph - N/A Rain Light Rain
4:50 PM 39.2 °F 31.6 °F 37.4 °F 93% 29.68 in 5.6 mi East 12.7 mph - N/A Rain Light Rain
5:20 PM 39.2 °F 31.2 °F 37.4 °F 93% 29.68 in 5.6 mi ENE 13.8 mph - N/A Rain Light Rain
5:50 PM 39.2 °F 31.6 °F 35.6 °F 87% 29.68 in 5.6 mi ENE 12.7 mph - N/A Rain Light Rain
6:20 PM 39.2 °F 31.6 °F 37.4 °F 93% 29.71 in 5.6 mi East 12.7 mph - N/A Rain Light Rain
6:50 PM 39.2 °F 32.5 °F 35.6 °F 87% 29.71 in 5.6 mi East 10.4 mph - N/A Rain Light Rain
7:20 PM 37.4 °F 29.8 °F 37.4 °F 100% 29.71 in 5.6 mi ENE 11.5 mph - N/A Rain Light Rain
8:20 PM 37.4 °F 29.3 °F 35.6 °F 93% 29.74 in 5.6 mi East 12.7 mph - N/A Rain Light Rain
8:50 PM 37.4 °F 30.8 °F 37.4 °F 100% 29.74 in 5.6 mi ENE 9.2 mph - N/A Rain Light Rain
9:20 PM 37.4 °F 30.3 °F 35.6 °F 93% 29.74 in 6.2 mi ENE 10.4 mph - N/A Rain Light Rain
9:50 PM 37.4 °F 30.8 °F 35.6 °F 93% 29.74 in 6.2 mi ENE 9.2 mph - N/A   Mostly Cloudy
10:20 PM 37.4 °F 30.8 °F 35.6 °F 93% 29.74 in 6.2 mi ENE 9.2 mph - N/A   Mostly Cloudy
10:50 PM 37.4 °F 30.8 °F 35.6 °F 93% 29.74 in 6.2 mi ENE 9.2 mph - N/A   Scattered Clouds
11:20 PM 37.4 °F 30.8 °F 35.6 °F 93% 29.74 in 6.2 mi NE 9.2 mph - N/A   Scattered Clouds
11:50 PM 37.4 °F 32.1 °F 35.6 °F 93% 29.74 in 6.2 mi NE 6.9 mph - N/A   Scattered Clouds